Home   Weather   Trondheim   Past weeks

Flag for Norway Past Weather in Trondheim, Norway — Yesterday and Last 2 Weeks

Now
45 °F

Light rain. Passing clouds.


Feels Like: 36 °F
Forecast: 41 / 47 °F
Wind: 21 mph from West

Location: Trondheim / Vaernes

Current Time: Dec 4, 2016 at 5:31:48 pm

Latest Report: Dec 4, 2016 at 4:50 pm


Visibility: N/A

Pressure: 29.83 "Hg

Humidity: 87%

Dew Point: 41 °F

Location of TrondheimLocation

Past Weather in Trondheim — Graph

°F

Trondheim Temperature Yesterday

Maximum temperature yesterday: 36 °F (at 12:50 am)
Minimum temperature yesterday: 32 °F (at 6:20 am)
Average temperature yesterday: 33 °F

High & Low Weather Summary for the Past Weeks

 TemperatureHumidityPressure
High50 °F (Nov 25, 11:50 am)100% (Nov 22, 4:20 pm)30.42 "Hg (Nov 22, 4:20 pm)
Low25 °F (Nov 28, 1:50 am)56% (Nov 20, 1:50 pm)29.30 "Hg (Nov 19, 4:20 pm)
Average36 °F87%29.83 "Hg
* Reported Nov 19 4:20 pm — Dec 4 4:20 pm, Trondheim, Weather by CustomWeather, © 2016

Note: Actual official high and low records may vary slightly from our data, if they occured in-between our weather recording intervals... More about our weather records

Advertising

Trondheim Weather History for the Previous 24 Hours

Scroll right to see more
 ConditionsComfort  
Time TempWeatherWind HumidityBarometerVisibility
4:20 pm
Sun, Dec 4
45 °FLight rain. Passing clouds.21 mph93%29.83 "Hg5 mi
3:50 pm45 °FLight rain. Passing clouds.22 mph87%29.83 "Hg5 mi
3:20 pm45 °FLight rain. Passing clouds.24 mph87%29.83 "Hg5 mi
2:50 pm45 °FLight rain. Passing clouds.23 mph87%29.83 "Hg5 mi
2:20 pm45 °FLight rain. Partly sunny.24 mph87%29.83 "HgN/A
1:50 pm45 °FLight rain. Partly sunny.23 mph81%29.86 "Hg5 mi
1:20 pm45 °FLight rain. Partly sunny.21 mph81%29.86 "Hg4 mi
12:50 pm45 °FLight rain. Partly sunny.23 mph81%29.86 "HgN/A
12:20 pm43 °FLight rain. Partly sunny.17 mph81%29.89 "HgN/A
11:50 am43 °FLight rain. Broken clouds.18 mph81%29.89 "HgN/A
11:20 am45 °FDrizzle. Partly sunny.18 mph81%29.92 "HgN/A
10:50 am45 °FPartly sunny.22 mph81%29.92 "HgN/A
10:20 am43 °FDrizzle. Partly sunny.18 mph87%29.92 "HgN/A
9:50 am45 °FDrizzle. Partly sunny.21 mph81%29.92 "HgN/A
9:20 am43 °FPassing clouds.20 mph87%29.92 "HgN/A
8:50 am41 °FSleet. Passing clouds.16 mph87%29.95 "HgN/A
8:20 am41 °FLight rain. Partly cloudy.16 mph87%29.95 "HgN/A
7:50 am43 °FPartly cloudy.17 mph81%29.98 "HgN/A
7:20 am43 °FPartly cloudy.18 mph81%29.98 "HgN/A
6:50 am43 °FMostly cloudy.18 mph81%29.98 "HgN/A
6:20 am43 °FOvercast.18 mph81%29.98 "HgN/A
5:50 am41 °FOvercast.18 mph87%29.98 "HgN/A
5:20 am36 °FDrizzle. Overcast.18 mph100%29.98 "HgN/A
4:50 am36 °FMostly cloudy.6 mph93%29.98 "HgN/A
4:20 am36 °FLow clouds.3 mph100%29.98 "HgN/A
3:20 am36 °FMostly cloudy.3 mph93%29.98 "HgN/A
2:50 am37 °FLight rain. Mostly cloudy.9 mph93%29.98 "Hg4 mi
2:20 am36 °FMostly cloudy.2 mph100%29.98 "HgN/A
1:50 am34 °FLight rain. Mostly cloudy.6 mph100%29.98 "Hg3 mi
1:20 am34 °FLight rain. Low clouds.2 mph100%29.98 "HgN/A
12:50 am34 °FPassing clouds.5 mph93%29.98 "HgN/A
12:20 am34 °FPassing clouds.6 mph100%30.01 "HgN/A
11:50 pm
Sat, Dec 3
34 °FPassing clouds.6 mph100%30.01 "HgN/A
11:20 pm34 °FPassing clouds.5 mph93%30.01 "HgN/A
10:50 pm34 °FPassing clouds.5 mph93%30.01 "HgN/A
10:20 pm34 °FPassing clouds.6 mph93%30.01 "HgN/A
9:50 pm34 °FPassing clouds.6 mph93%30.01 "HgN/A
9:20 pm34 °FPassing clouds.6 mph100%30.01 "HgN/A
8:50 pm34 °FPassing clouds.5 mph93%30.01 "HgN/A
8:20 pm34 °FPassing clouds.6 mph93%30.01 "Hg4 mi
7:50 pm34 °FSleet. Passing clouds.5 mph93%30.01 "HgN/A
7:20 pm34 °FPassing clouds.6 mph93%30.01 "HgN/A
6:50 pm34 °FLight rain. Passing clouds.7 mph93%30.01 "HgN/A
6:20 pm34 °FLight rain. Passing clouds.5 mph93%30.01 "Hg4 mi
5:50 pm32 °FLight rain. Passing clouds.5 mph100%30.01 "Hg4 mi
5:20 pm32 °FLight rain. Passing clouds.3 mph100%30.04 "Hg4 mi
Weather by CustomWeather, © 2016

See weather overviewHow to use our weather pages